| time (UTC) | temp F | wind direction | speed knots | gust knots | rain 1hr in | rain 24hr in | rain mn in | humidity % | barometer mb |
| 20260504081525 | 59 | 109 | 0.0 | 8.7 | 0.00 | 0.09 | 0.09 | 80 | 1008.7 |
| 20260504044604 | 64 | 190 | 2.6 | 13.9 | 0.00 | 0.00 | 0.00 | 61 | 1008.5 |
| 20260504043058 | 64 | 182 | 0.0 | 12.2 | 0.00 | 0.00 | 0.00 | 60 | 1008.6 |
| 20260504041553 | 64 | 202 | 1.7 | 11.3 | 0.00 | 0.00 | 0.00 | 59 | 1009.1 |
| 20260504040105 | 64 | 194 | 1.7 | 10.4 | 0.00 | 0.00 | 0.00 | 58 | 1009.2 |
| 20260504034611 | 65 | 185 | 2.6 | 13.9 | 0.00 | 0.00 | 0.00 | 57 | 1009.2 |
| 20260504033050 | 65 | 162 | 0.9 | 18.2 | 0.00 | 0.00 | 0.00 | 57 | 1009.1 |
| 20260504031549 | 65 | 168 | 5.2 | 16.5 | 0.00 | 0.00 | 0.00 | 56 | 1009.1 |
| 20260504030113 | 65 | 162 | 7.0 | 15.6 | 0.00 | 0.00 | 0.00 | 55 | 1009.1 |
| 20260504024554 | 66 | 127 | 3.5 | 12.2 | 0.00 | 0.00 | 0.00 | 54 | 1009.3 |
| 20260504023047 | 66 | 185 | 6.1 | 16.5 | 0.00 | 0.00 | 0.00 | 54 | 1009.3 |
| 20260504021551 | 66 | 177 | 0.9 | 17.4 | 0.00 | 0.00 | 0.00 | 54 | 1009.2 |
| 20260504020045 | 66 | 132 | 5.2 | 18.2 | 0.00 | 0.00 | 0.00 | 53 | 1009.2 |
| 20260504014646 | 66 | 134 | 3.5 | 14.8 | 0.00 | 0.00 | 0.00 | 52 | 1009.0 |
| 20260504013050 | 66 | 143 | 1.7 | 13.9 | 0.00 | 0.00 | 0.00 | 52 | 1009.1 |
| 20260504011544 | 67 | 149 | 5.2 | 13.0 | 0.00 | 0.00 | 0.00 | 51 | 1008.9 |
| 20260504010043 | 68 | 133 | 0.0 | 13.0 | 0.00 | 0.00 | 0.00 | 49 | 1009.0 |
| 20260504004542 | 68 | 134 | 4.3 | 15.6 | 0.00 | 0.00 | 0.00 | 49 | 1009.0 |
| 20260504003041 | 69 | 180 | 2.6 | 13.0 | 0.00 | 0.00 | 0.00 | 48 | 1009.1 |
| 20260504001554 | 69 | 144 | 0.9 | 11.3 | 0.00 | 0.00 | 0.00 | 47 | 1009.1 |
| 20260504000039 | 70 | 148 | 0.0 | 16.5 | 0.00 | 0.00 | 0.00 | 45 | 1009.3 |
| 20260503234537 | 71 | 195 | 3.5 | 12.2 | 0.00 | 0.00 | 0.00 | 43 | 1009.4 |
| 20260503233039 | 71 | 146 | 4.3 | 10.4 | 0.00 | 0.00 | 0.00 | 42 | 1009.7 |
| 20260503231536 | 71 | 177 | 1.7 | 17.4 | 0.00 | 0.00 | 0.00 | 42 | 1009.6 |
| 20260503230032 | 71 | 188 | 9.6 | 19.1 | 0.00 | 0.00 | 0.00 | 41 | 1009.8 |
| 20260503224533 | 71 | 144 | 6.1 | 19.1 | 0.00 | 0.00 | 0.00 | 40 | 1010.0 |
| 20260503223030 | 71 | 136 | 6.1 | 19.1 | 0.00 | 0.00 | 0.00 | 41 | 1010.0 |
| 20260503221529 | 71 | 189 | 7.0 | 17.4 | 0.00 | 0.00 | 0.00 | 40 | 1010.1 |
| 20260503220027 | 71 | 133 | 3.5 | 16.5 | 0.00 | 0.00 | 0.00 | 41 | 1010.2 |
| 20260503214524 | 71 | 162 | 11.3 | 18.2 | 0.00 | 0.00 | 0.00 | 40 | 1010.2 |
| 20260503213022 | 70 | 136 | 7.8 | 20.9 | 0.00 | 0.00 | 0.00 | 40 | 1010.4 |
| 20260503211525 | 70 | 190 | 6.1 | 18.2 | 0.00 | 0.00 | 0.00 | 41 | 1010.7 |
| 20260503210017 | 70 | 170 | 6.1 | 19.1 | 0.00 | 0.00 | 0.00 | 40 | 1011.0 |
| 20260503204513 | 69 | 154 | 8.7 | 21.7 | 0.00 | 0.01 | 0.00 | 40 | 1011.6 |
| 20260503203011 | 69 | 185 | 6.1 | 17.4 | 0.00 | 0.01 | 0.00 | 40 | 1011.6 |
| 20260503201508 | 68 | 135 | 0.9 | 24.3 | 0.00 | 0.01 | 0.00 | 42 | 1012.1 |
| 20260503200005 | 68 | 148 | 2.6 | 15.6 | 0.00 | 0.01 | 0.00 | 43 | 1012.4 |
| 20260503194501 | 68 | 146 | 12.2 | 24.3 | 0.00 | 0.01 | 0.00 | 43 | 1013.0 |
| 20260503193112 | 67 | 180 | 9.6 | 19.1 | 0.00 | 0.01 | 0.00 | 45 | 1013.4 |
| 20260503191558 | 66 | 135 | 2.6 | 17.4 | 0.00 | 0.01 | 0.00 | 46 | 1013.7 |
| 20260503190105 | 65 | 163 | 7.8 | 19.1 | 0.00 | 0.01 | 0.00 | 46 | 1014.3 |
| 20260503184551 | 65 | 156 | 8.7 | 18.2 | 0.00 | 0.01 | 0.00 | 46 | 1014.9 |
| 20260503183058 | 65 | 190 | 1.7 | 19.1 | 0.00 | 0.01 | 0.00 | 47 | 1015.2 |
| 20260503181543 | 64 | 191 | 1.7 | 19.1 | 0.00 | 0.01 | 0.00 | 48 | 1015.5 |
| 20260503180051 | 64 | 198 | 12.2 | 21.7 | 0.00 | 0.01 | 0.00 | 46 | 1016.0 |
| 20260503174537 | 64 | 161 | 2.6 | 16.5 | 0.00 | 0.06 | 0.00 | 49 | 1016.4 |
| 20260503173041 | 63 | 123 | 7.8 | 20.9 | 0.00 | 0.06 | 0.00 | 50 | 1016.9 |
| 20260503171539 | 62 | 156 | 7.0 | 20.0 | 0.00 | 0.06 | 0.00 | 51 | 1017.2 |